TimeEST,TemperatureF,Dew PointF,Humidity,Sea Level PressureIn,VisibilityMPH,Wind Direction,Wind SpeedMPH,Gust SpeedMPH,PrecipitationIn,Events,Conditions,WindDirDegrees,DateUTC
12:56 AM,35.1,30.9,85,30.21,9.0,NNW,4.6,-,N/A,,Overcast,340,2012-11-28 05:56:00
1:56 AM,33.1,30.0,89,30.18,9.0,NNW,5.8,-,N/A,,Mostly Cloudy,340,2012-11-28 06:56:00
2:56 AM,34.0,30.0,85,30.21,10.0,NW,6.9,-,N/A,,Overcast,320,2012-11-28 07:56:00
3:56 AM,34.0,28.9,82,30.19,10.0,NNW,8.1,-,N/A,,Overcast,340,2012-11-28 08:56:00
4:56 AM,33.1,28.0,82,30.20,10.0,NNW,9.2,-,N/A,,Overcast,340,2012-11-28 09:56:00
5:56 AM,33.1,27.0,78,30.21,10.0,NW,6.9,-,N/A,,Scattered Clouds,320,2012-11-28 10:56:00
6:56 AM,30.0,25.0,82,30.22,10.0,NNW,9.2,-,N/A,,Clear,330,2012-11-28 11:56:00
7:56 AM,32.0,26.1,79,30.22,10.0,NNW,10.4,-,N/A,,Clear,330,2012-11-28 12:56:00
8:56 AM,34.0,26.1,73,30.23,10.0,NNW,10.4,-,N/A,,Clear,340,2012-11-28 13:56:00
9:56 AM,37.0,24.1,59,30.23,10.0,North,10.4,-,N/A,,Clear,350,2012-11-28 14:56:00
10:56 AM,39.0,24.1,55,30.22,10.0,NW,9.2,-,N/A,,Clear,310,2012-11-28 15:56:00
11:56 AM,39.9,23.0,51,30.19,10.0,Variable,6.9,-,N/A,,Partly Cloudy,0,2012-11-28 16:56:00
12:56 PM,39.0,23.0,53,30.17,10.0,NW,6.9,-,N/A,,Mostly Cloudy,320,2012-11-28 17:56:00
1:56 PM,37.9,23.0,55,30.17,10.0,WNW,12.7,-,N/A,,Mostly Cloudy,300,2012-11-28 18:56:00
2:56 PM,37.0,21.9,54,30.17,10.0,WNW,15.0,-,N/A,,Mostly Cloudy,300,2012-11-28 19:56:00
3:56 PM,36.0,21.9,57,30.18,10.0,NW,13.8,-,N/A,,Mostly Cloudy,310,2012-11-28 20:56:00
4:56 PM,35.1,19.9,54,30.21,10.0,WNW,15.0,19.6,N/A,,Scattered Clouds,290,2012-11-28 21:56:00
5:56 PM,34.0,21.0,59,30.23,10.0,WNW,9.2,-,N/A,,Clear,290,2012-11-28 22:56:00
6:56 PM,33.1,19.9,59,30.24,10.0,West,5.8,-,N/A,,Clear,280,2012-11-28 23:56:00
7:56 PM,32.0,21.0,64,30.25,10.0,West,5.8,-,N/A,,Clear,260,2012-11-29 00:56:00
8:56 PM,30.9,21.0,67,30.24,10.0,WSW,3.5,-,N/A,,Clear,250,2012-11-29 01:56:00
9:56 PM,30.0,21.0,69,30.26,10.0,WSW,4.6,-,N/A,,Clear,240,2012-11-29 02:56:00
10:56 PM,30.9,21.9,69,30.26,10.0,West,5.8,-,N/A,,Clear,270,2012-11-29 03:56:00
11:56 PM,30.9,21.9,69,30.26,10.0,West,4.6,-,N/A,,Clear,260,2012-11-29 04:56:00